loading
|

STARLINK-32175, 60339

Orbit data source: Space-Track

STARLINK-32175, 60339 is a payload satellite owned by SpaceX/Seattle (US) in LEO that was launched on Fri, 02 Aug 2024 UTC via an FALCON 9 launch vehicle from the Air Force Eastern Test Range (AFETR). Payloads include a variety of satellites, spacecraft, and rockets equipped with specific instruments for various scientific and technological missions. These include communications satellites like Starlink; space stations such as the ISS; scientific satellites like the Hubble; Earth observation satellites from companies like Planet Labs, Umbra, and HawkEye 360; GPS; miniature CubeSats for education and research; and military/defense satellites.

Loading next visibility...
Loading greatness...
STARLINK-32175 details
Identifier
60339, 2024-136L
Orbit
LEO
Last TLE update8 hours ago
Origin
Flag of USSpaceX/Seattle (US)
ManufacturerSpaceX/Seattle
Mission statusOperational
MissionUnknown
Bus & MotorSTARLINK V2M, Unknown motor
Mass750 kg wet, ~700 kg dry
Launch date (UTC)
2024-08-02 (2 months ago)
Launch vehicle
FALCON 9
Launch site
Air Force Eastern Test Range (AFETR)
Object type
Payload
Rocket body
Debris
Radar Cross SectionLarge (>1 m²)

Expand to show TLE details & history

TLE from 8 hours ago
0 STARLINK-32175
1 60339U 24136L   24261.59919917  .00000516  00000-0  22870-4 0  9997
2 60339  53.1638  55.5160 0000498  98.4217 261.6845 15.39630889  7273
Epoch: 2024-09-17T14:22Z
Definitive object data (Epoch: 2024-09-17T14:22:50.808Z)
Latitude0.00004°
Longitude-157.20722°
Altitude448.153 km
Speed7.645 km/s
True Right ascension03h 42m 03s
True Declination0° 00' 00"
Sunlit
Object was in full shadow at TLE epoch
Predictive object data (real-time)
Latitude-11.73516°
Longitude-167.62641°
Altitude450.498 km
Speed7.642 km/s
Apparent Right ascension02h 58m 13s
Apparent Declination-25° 11' 58"
Sunlit
Object is in full shadow
Predictive observer data (real-time)
Local Sidereal Time14:55:16
Azimuth357.371° N
Elevation-75.27°
Doppler factor1
Orbital elements
Apogee447.797 km
Perigee447.117 km
Semi-major axis6,825.594 km
Eccentricity0.0000498
Inclination53.1638°
RAAN55.516°
Arg. of periapsis98.4217°
True anomaly261.67885°
Mean anomaly261.6845°
Eccentric anomaly261.68168°
Mean motion3.84886 °/min
BSTAR0.00002287
Period93.53 mins
No data available

STARLINK-32175 Visibility forecast

Observer location: 39.9160978°, -105.1181434

STARLINK-32175 is not visible in the next 10 days
Span
Click to sort rows by Start time (UTC) header in descending order
Start Az.
Max El. time (UTC)
Max El. Az.
Max El.
End time (UTC)
End Az.